• In Portugal
  • List of Countries
  • For 7 days
  • Water Temperature
  • Satellite Maps
  • Weather Map
  • Weather Widgets
  • user-avatar
    Login

    Hourly Weather Gintro

    Today, 16 October, Tuesday

    Time Temperature Precipitation Wind Pressure Humidity
    00:00 +13°C° 0 mm 4 mps 763 mmHg 62%
    01:00 +12°C° 0 mm 3 mps 763 mmHg 63%
    02:00 +12°C° 0 mm 3 mps 763 mmHg 63%
    03:00 +12°C° 0 mm 3 mps 763 mmHg 64%
    04:00 +11°C° 0 mm 3 mps 763 mmHg 64%
    05:00 +11°C° 0 mm 3 mps 763 mmHg 64%
    06:00 +11°C° 0 mm 3 mps 763 mmHg 64%
    07:00 +11°C° 0 mm 3 mps 763 mmHg 63%
    08:00 +13°C° 0 mm 4 mps 764 mmHg 58%
    09:00 +15°C° 0 mm 4 mps 764 mmHg 53%
    10:00 +18°C° 0 mm 4 mps 764 mmHg 47%
    11:00 +19°C° 0 mm 3 mps 764 mmHg 45%
    12:00 +20°C° 0 mm 3 mps 764 mmHg 43%
    13:00 +21°C° 0 mm 3 mps 764 mmHg 40%
    14:00 +20°C° 0 mm 3 mps 763 mmHg 43%
    15:00 +20°C° 0 mm 2 mps 763 mmHg 46%
    16:00 +19°C° 0 mm 2 mps 763 mmHg 49%
    17:00 +18°C° 0 mm 2 mps 763 mmHg 52%
    18:00 +16°C° 0 mm 2 mps 764 mmHg 54%
    19:00 +15°C° 0 mm 2 mps 764 mmHg 57%
    20:00 +15°C° 0 mm 2 mps 764 mmHg 58%
    21:00 +14°C° 0 mm 2 mps 764 mmHg 59%
    22:00 +14°C° 0 mm 2 mps 764 mmHg 60%
    23:00 +14°C° 0 mm 2 mps 764 mmHg 61%

    Tomorrow, 17 October, Wednesday

    Time Temperature Precipitation Wind Pressure Humidity
    00:00 +13°C° 0 mm 2 mps 764 mmHg 61%
    01:00 +13°C° 0 mm 2 mps 764 mmHg 62%
    02:00 +13°C° 0 mm 2 mps 764 mmHg 62%
    03:00 +12°C° 0 mm 2 mps 764 mmHg 63%
    04:00 +12°C° 0 mm 2 mps 764 mmHg 63%
    05:00 +12°C° 0 mm 2 mps 764 mmHg 64%
    06:00 +12°C° 0 mm 2 mps 764 mmHg 64%
    07:00 +12°C° 0 mm 2 mps 764 mmHg 65%
    08:00 +14°C° 0 mm 2 mps 765 mmHg 59%
    09:00 +16°C° 0 mm 3 mps 765 mmHg 54%
    10:00 +18°C° 0 mm 3 mps 765 mmHg 49%
    11:00 +19°C° 0 mm 2 mps 765 mmHg 47%
    12:00 +20°C° 0 mm 2 mps 765 mmHg 44%
    13:00 +21°C° 0 mm 2 mps 764 mmHg 41%
    14:00 +21°C° 0 mm 2 mps 764 mmHg 44%
    15:00 +20°C° 0 mm 2 mps 764 mmHg 47%
    16:00 +20°C° 0 mm 1 mps 764 mmHg 50%
    17:00 +18°C° 0 mm 2 mps 764 mmHg 52%
    18:00 +17°C° 0 mm 2 mps 764 mmHg 54%
    19:00 +16°C° 0 mm 2 mps 764 mmHg 56%
    20:00 +15°C° 0 mm 2 mps 764 mmHg 56%
    21:00 +15°C° 0 mm 2 mps 764 mmHg 57%
    22:00 +14°C° 0 mm 2 mps 764 mmHg 58%
    23:00 +14°C° 0 mm 2 mps 764 mmHg 58%

    Day after tomorrow, 18 October, Thursday

    Time Temperature Precipitation Wind Pressure Humidity
    00:00 +13°C° 0 mm 2 mps 764 mmHg 59%
    01:00 +13°C° 0 mm 2 mps 764 mmHg 59%
    02:00 +13°C° 0 mm 2 mps 764 mmHg 60%
    03:00 +12°C° 0 mm 1 mps 764 mmHg 61%
    04:00 +12°C° 0 mm 1 mps 764 mmHg 61%
    05:00 +12°C° 0 mm 1 mps 764 mmHg 62%
    06:00 +12°C° 0 mm 1 mps 764 mmHg 63%
    07:00 +12°C° 0 mm 1 mps 764 mmHg 64%
    08:00 +13°C° 0 mm 1 mps 764 mmHg 59%
    09:00 +15°C° 0 mm 1 mps 764 mmHg 54%
    10:00 +18°C° 0 mm 1 mps 764 mmHg 50%
    11:00 +19°C° 0 mm 1 mps 763 mmHg 47%
    12:00 +18°C° 0 mm 0 mps 763 mmHg 44%
    13:00 +19°C° 0 mm 0 mps 763 mmHg 41%
    14:00 +18°C° 0 mm 0 mps 763 mmHg 44%
    15:00 +17°C° 0 mm 0 mps 763 mmHg 47%
    16:00 +18°C° 0 mm 1 mps 763 mmHg 50%
    17:00 +18°C° 0 mm 1 mps 763 mmHg 52%
    18:00 +16°C° 0 mm 1 mps 763 mmHg 54%
    19:00 +15°C° 0 mm 1 mps 763 mmHg 55%
    20:00 +15°C° 0 mm 1 mps 763 mmHg 56%
    21:00 +15°C° 0 mm 1 mps 763 mmHg 57%
    22:00 +15°C° 0 mm 1 mps 763 mmHg 58%
    23:00 +14°C° 0 mm 1 mps 763 mmHg 60%

    19 October, Friday

    Time Temperature Precipitation Wind Pressure Humidity
    00:00 +14°C° 0 mm 1 mps 763 mmHg 61%
    01:00 +14°C° 0 mm 1 mps 763 mmHg 63%
    02:00 +14°C° 0 mm 2 mps 763 mmHg 65%
    03:00 +13°C° 0 mm 2 mps 763 mmHg 66%
    04:00 +13°C° 0 mm 2 mps 763 mmHg 68%
    05:00 +13°C° 0 mm 2 mps 763 mmHg 70%
    06:00 +13°C° 0 mm 2 mps 763 mmHg 71%
    07:00 +13°C° 0 mm 2 mps 764 mmHg 73%
    08:00 +14°C° 0 mm 2 mps 764 mmHg 71%
    09:00 +16°C° 0 mm 2 mps 764 mmHg 68%
    10:00 +17°C° 0 mm 2 mps 764 mmHg 66%
    11:00 +17°C° 0 mm 3 mps 764 mmHg 66%
    12:00 +17°C° 0 mm 3 mps 764 mmHg 65%
    13:00 +18°C° 0 mm 3 mps 764 mmHg 65%
    14:00 +17°C° 0 mm 3 mps 764 mmHg 69%
    15:00 +16°C° 0 mm 3 mps 764 mmHg 74%
    16:00 +14°C° 0 mm 3 mps 764 mmHg 79%
    17:00 +13°C° 0 mm 3 mps 765 mmHg 83%
    18:00 +12°C° 0 mm 3 mps 765 mmHg 87%
    19:00 +11°C° 0 mm 3 mps 765 mmHg 91%
    20:00 +12°C° 0 mm 2 mps 765 mmHg 91%
    21:00 +12°C° 0 mm 2 mps 765 mmHg 91%
    22:00 +10°C° 0 mm 2 mps 766 mmHg 92%
    23:00 +10°C° 0 mm 2 mps 766 mmHg 92%

    20 October, Saturday

    Time Temperature Precipitation Wind Pressure Humidity
    00:00 +9°C° 0 mm 2 mps 766 mmHg 93%
    01:00 +9°C° 0 mm 2 mps 766 mmHg 94%
    02:00 +9°C° 0 mm 2 mps 766 mmHg 94%
    03:00 +8°C° 0 mm 2 mps 766 mmHg 94%
    04:00 +8°C° 0 mm 2 mps 766 mmHg 94%
    05:00 +8°C° 0 mm 3 mps 767 mmHg 94%
    06:00 +8°C° 0 mm 3 mps 767 mmHg 94%
    07:00 +7°C° 0 mm 3 mps 767 mmHg 94%
    08:00 +9°C° 0 mm 3 mps 767 mmHg 85%
    09:00 +10°C° 0 mm 4 mps 767 mmHg 76%
    10:00 +12°C° 0 mm 4 mps 768 mmHg 67%
    11:00 +12°C° 0 mm 4 mps 768 mmHg 64%
    12:00 +12°C° 0 mm 5 mps 768 mmHg 62%
    13:00 +13°C° 0 mm 5 mps 768 mmHg 59%
    14:00 +12°C° 0 mm 5 mps 768 mmHg 61%
    15:00 +12°C° 0 mm 4 mps 768 mmHg 63%
    16:00 +11°C° 0 mm 4 mps 768 mmHg 64%
    17:00 +11°C° 0 mm 4 mps 768 mmHg 68%
    18:00 +10°C° 0 mm 4 mps 768 mmHg 71%
    19:00 +10°C° 0 mm 4 mps 768 mmHg 74%
    20:00 +10°C° 0.1 mm 4 mps 768 mmHg 77%
    21:00 +10°C° 0.1 mm 4 mps 768 mmHg 79%
    22:00 +10°C° 0.1 mm 4 mps 768 mmHg 82%
    23:00 +10°C° 0 mm 4 mps 768 mmHg 84%

    21 October, Sunday

    Time Temperature Precipitation Wind Pressure Humidity
    00:00 +10°C° 0 mm 4 mps 768 mmHg 87%
    01:00 +10°C° 0 mm 4 mps 768 mmHg 89%
    02:00 +10°C° 0 mm 4 mps 768 mmHg 89%
    03:00 +10°C° 0 mm 4 mps 767 mmHg 90%
    04:00 +10°C° 0 mm 4 mps 767 mmHg 90%
    05:00 +11°C° 0 mm 4 mps 767 mmHg 90%
    06:00 +11°C° 0 mm 4 mps 767 mmHg 89%
    07:00 +11°C° 0 mm 4 mps 768 mmHg 89%
    08:00 +12°C° 0 mm 5 mps 767 mmHg 84%
    09:00 +12°C° 0 mm 5 mps 767 mmHg 79%
    10:00 +13°C° 0 mm 5 mps 767 mmHg 74%
    11:00 +14°C° 0 mm 5 mps 767 mmHg 69%
    12:00 +14°C° 0 mm 5 mps 767 mmHg 64%
    13:00 +15°C° 0 mm 5 mps 767 mmHg 59%
    14:00 +15°C° 0 mm 5 mps 766 mmHg 59%
    15:00 +14°C° 0 mm 4 mps 766 mmHg 59%
    16:00 +14°C° 0 mm 4 mps 766 mmHg 59%
    17:00 +14°C° 0 mm 4 mps 766 mmHg 61%
    18:00 +13°C° 0 mm 4 mps 765 mmHg 63%
    19:00 +13°C° 0 mm 5 mps 765 mmHg 65%
    20:00 +12°C° 0 mm 5 mps 765 mmHg 67%
    21:00 +12°C° 0 mm 5 mps 765 mmHg 70%
    22:00 +10°C° 0 mm 5 mps 764 mmHg 72%
    23:00 +10°C° 0 mm 5 mps 764 mmHg 73%
    Show more